SELKV ESGV-ESGG

Flight info

Callsign SELKV
Flight time N/A
Altitude 1000
Route DCT ESGV/STAY0100
Aircraft P28A/L-SFG/C

Departure

Time N/A
Airport Varberg Getterön Airfield (ESGV)

Arrival

Time 2026-05-07 19:18
Airport Göteborg Landvetter Airport (ESGG)
Time Latitude Longitude Altitude Speed Heading
2026-05-07 19:16 57.60899 12.22380 1277 ft 107 kts 38°
2026-05-07 19:16 57.61455 12.23275 1180 ft 104 kts 36°
2026-05-07 19:16 57.62005 12.24052 1148 ft 94 kts 31°
2026-05-07 19:16 57.62536 12.24629 1041 ft 81 kts 23°
2026-05-07 19:17 57.63025 12.25009 897 ft 73 kts 18°
2026-05-07 19:17 57.63463 12.25421 815 ft 68 kts 21°
2026-05-07 19:17 57.63880 12.25808 724 ft 67 kts 21°
2026-05-07 19:17 57.64285 12.26177 663 ft 65 kts 19°
2026-05-07 19:18 57.64703 12.26548 592 ft 66 kts 20°
2026-05-07 19:18 57.65103 12.26902 523 ft 61 kts 18°
2026-05-07 19:18 57.65427 12.27195 512 ft 41 kts 28°
2026-05-07 19:18 57.65658 12.27408 509 ft 34 kts 26°
2026-05-07 19:19 57.65859 12.27591 510 ft 32 kts 21°
2026-05-07 19:19 57.66070 12.27784 507 ft 35 kts 24°
2026-05-07 19:19 57.66302 12.27998 508 ft 38 kts 25°
2026-05-07 19:19 57.66528 12.28207 515 ft 30 kts 30°
2026-05-07 19:20 57.66638 12.28374 513 ft 21 kts 50°
2026-05-07 19:20 57.66741 12.28642 509 ft 29 kts 57°
2026-05-07 19:20 57.66828 12.28849 509 ft 20 kts 62°
2026-05-07 19:20 57.66828 12.28896 510 ft 2 kts 115°
2026-05-07 19:21 57.66790 12.29048 511 ft 24 kts 115°
2026-05-07 19:21 57.66711 12.29090 511 ft 18 kts 209°
2026-05-07 19:21 57.66575 12.28965 511 ft 18 kts 205°
2026-05-07 19:21 57.66511 12.28943 511 ft 7 kts 283°
2026-05-07 19:22 57.66533 12.28857 511 ft 5 kts 296°
2026-05-07 19:22 57.66534 12.28854 511 ft 0 kts 295°